Location: Newark
(22.3060°N, 114.2134°E)
Time: 22:19:40
(UTC+00:00)

Tiros 1 despin weight - Pass Details

Date: 02 August 2021
Orbit: 593 x 641 km, 48.2° (Epoch: 24 September)

Event Time Altitude Azimuth Distance (km) Brightness Sun altitude
Rises 11:32:20 0° 330° (NNW) 2,927 ? -7.1°
Reaches altitude 10° 11:35:02 10° 344° (NNW) 2,011 ? -7.7°
Maximum altitude 11:38:50 25° 39° (NE) 1,282 ? -8.5°
Enters shadow 11:42:31 10° 94° (E) 1,964 ? -9.3°
